TimeGMT,TemperatureF,Dew PointF,Humidity,Sea Level PressureIn,VisibilityMPH,Wind Direction,Wind SpeedMPH,Gust SpeedMPH,PrecipitationIn,Events,Conditions,WindDirDegrees,DateUTC
12:00 AM,45,41,81,29.52,12,SW,8.9,,,,Mostly Cloudy,220,2013-01-29 00:00:00
12:00 AM,44.6,41.0,87,29.50,6.2,SW,9.2,-,N/A,,Mostly Cloudy,220,2013-01-29 00:00:00
12:30 AM,44.6,41.0,87,29.50,6.2,SSW,10.4,-,N/A,,Mostly Cloudy,210,2013-01-29 00:30:00
1:00 AM,44.6,42.8,93,29.50,6.2,SSW,10.4,-,N/A,,Mostly Cloudy,210,2013-01-29 01:00:00
1:30 AM,44.6,41.0,87,29.47,6.2,SSW,12.7,-,N/A,,Mostly Cloudy,210,2013-01-29 01:30:00
2:00 AM,44.6,41.0,87,29.47,6.2,SSW,9.2,-,N/A,,Scattered Clouds,200,2013-01-29 02:00:00
2:30 AM,44.6,42.8,93,29.47,6.2,SSW,12.7,-,N/A,,Mostly Cloudy,200,2013-01-29 02:30:00
3:00 AM,44.6,42.8,93,29.47,6.2,SSW,11.5,-,N/A,,Mostly Cloudy,200,2013-01-29 03:00:00
3:30 AM,44.6,42.8,93,29.44,6.2,South,9.2,-,N/A,,Mostly Cloudy,190,2013-01-29 03:30:00
4:00 AM,44.6,44.6,100,29.44,6.2,South,9.2,-,N/A,,Mostly Cloudy,180,2013-01-29 04:00:00
4:30 AM,44.6,44.6,100,29.44,1.9,South,9.2,-,N/A,,Light Drizzle,180,2013-01-29 04:30:00
5:00 AM,44.6,44.6,100,29.44,1.0,South,9.2,-,N/A,Rain,Light Rain,170,2013-01-29 05:00:00
5:30 AM,46.4,46.4,100,29.42,1.0,SSE,9.2,-,N/A,Rain,Light Rain,160,2013-01-29 05:30:00
6:00 AM,46,46,100,29.42,1,SSE,8.9,,,Rain,Light Rain,160,2013-01-29 06:00:00
6:00 AM,46.4,46.4,100,29.39,0.9,SSE,9.2,-,N/A,Rain,Light Rain,160,2013-01-29 06:00:00
6:30 AM,48.2,48.2,100,29.39,0.5,South,11.5,-,N/A,Fog-Rain,Light Rain,190,2013-01-29 06:30:00
7:00 AM,50.0,50.0,100,29.36,0.5,SSW,19.6,-,N/A,Fog-Rain,Light Rain,210,2013-01-29 07:00:00
7:30 AM,50.0,50.0,100,29.36,0.5,SSW,15.0,-,N/A,Fog-Rain,Light Rain,210,2013-01-29 07:30:00
8:00 AM,51.8,51.8,100,29.33,1.0,South,18.4,32.2,N/A,Rain,Light Rain,190,2013-01-29 08:00:00
8:30 AM,51.8,51.8,100,29.33,2.5,SSW,24.2,36.8,N/A,Rain,Light Rain,200,2013-01-29 08:30:00
9:00 AM,51.8,51.8,100,29.30,2.5,SSW,26.5,-,N/A,Rain,Light Rain,200,2013-01-29 09:00:00
9:30 AM,51.8,51.8,100,29.30,2.8,SSW,33.4,-,N/A,Rain,Light Rain,210,2013-01-29 09:30:00
10:00 AM,51.8,51.8,100,29.30,2.8,SSW,29.9,42.6,N/A,Rain,Light Rain,210,2013-01-29 10:00:00
10:30 AM,51.8,51.8,100,29.30,2.5,SSW,29.9,46.0,N/A,Rain,Light Rain,210,2013-01-29 10:30:00
11:00 AM,51.8,51.8,100,29.30,1.6,SSW,31.1,48.3,N/A,Rain,Light Rain,210,2013-01-29 11:00:00
11:30 AM,51.8,51.8,100,29.27,1.9,SSW,32.2,51.8,N/A,Rain,Light Rain,210,2013-01-29 11:30:00
12:00 PM,52,52,100,29.28,2,SSW,31.3,,,Rain,Light Rain,210,2013-01-29 12:00:00
12:00 PM,51.8,51.8,100,29.27,2.5,SSW,32.2,51.8,N/A,Rain,Light Rain,210,2013-01-29 12:00:00
12:30 PM,51.8,51.8,100,29.27,2.5,SSW,34.5,52.9,N/A,Rain,Light Rain,210,2013-01-29 12:30:00
1:00 PM,51.8,51.8,100,29.24,1.1,SSW,35.7,50.6,N/A,Rain,Light Rain,210,2013-01-29 13:00:00
1:30 PM,51.8,51.8,100,29.24,1.9,SSW,33.4,44.9,N/A,Rain,Light Rain,210,2013-01-29 13:30:00
2:00 PM,51.8,51.8,100,29.27,6.2,SW,26.5,39.1,N/A,,Light Drizzle,220,2013-01-29 14:00:00
2:30 PM,50.0,50.0,100,29.30,4.3,WSW,17.3,-,N/A,Rain,Light Rain,240,2013-01-29 14:30:00
3:00 PM,48.2,48.2,100,29.33,6.2,WSW,16.1,-,N/A,Rain,Light Rain,240,2013-01-29 15:00:00
3:30 PM,48.2,48.2,100,29.33,6.2,WSW,17.3,-,N/A,,Overcast,240,2013-01-29 15:30:00
4:00 PM,48.2,48.2,100,29.33,6.2,SW,17.3,-,N/A,,Overcast,230,2013-01-29 16:00:00
4:30 PM,48.2,46.4,93,29.36,6.2,WSW,16.1,-,N/A,Rain,Light Rain Showers,240,2013-01-29 16:30:00
5:00 PM,46.4,46.4,100,29.36,4.3,SW,12.7,-,N/A,Rain,Light Rain Showers,230,2013-01-29 17:00:00
5:30 PM,46.4,46.4,100,29.39,6.2,SW,16.1,-,N/A,,Mostly Cloudy,230,2013-01-29 17:30:00
6:00 PM,46,45,96,29.41,16,SW,17.9,,,Rain,Light Rain Showers,230,2013-01-29 18:00:00
6:00 PM,46.4,44.6,93,29.39,6.2,SW,17.3,-,N/A,,Mostly Cloudy,230,2013-01-29 18:00:00
6:30 PM,46.4,46.4,100,29.39,6.2,SW,13.8,-,N/A,,Mostly Cloudy,230,2013-01-29 18:30:00
7:00 PM,46.4,46.4,100,29.42,6.2,SW,15.0,-,N/A,,Mostly Cloudy,220,2013-01-29 19:00:00
7:30 PM,46.4,44.6,93,29.42,6.2,SW,15.0,-,N/A,,Mostly Cloudy,220,2013-01-29 19:30:00
8:00 PM,46.4,44.6,93,29.42,6.2,SW,13.8,-,N/A,,Mostly Cloudy,220,2013-01-29 20:00:00
8:30 PM,46.4,44.6,93,29.42,6.2,SW,13.8,-,N/A,,Mostly Cloudy,220,2013-01-29 20:30:00
9:00 PM,46.4,44.6,93,29.42,6.2,SW,12.7,-,N/A,,Mostly Cloudy,220,2013-01-29 21:00:00
9:30 PM,46.4,46.4,100,29.42,6.2,SW,13.8,-,N/A,,Mostly Cloudy,220,2013-01-29 21:30:00
10:00 PM,46.4,44.6,93,29.42,6.2,SW,13.8,-,N/A,,Mostly Cloudy,220,2013-01-29 22:00:00
10:30 PM,44.6,44.6,100,29.42,6.2,SW,15.0,-,N/A,,Scattered Clouds,220,2013-01-29 22:30:00
11:00 PM,46.4,44.6,93,29.42,6.2,SW,16.1,-,N/A,,Mostly Cloudy,220,2013-01-29 23:00:00
11:30 PM,46.4,46.4,100,29.42,6.2,SSW,17.3,-,N/A,,Mostly Cloudy,210,2013-01-29 23:30:00